When you browse on this site, cookies collect data to enhance your experience and personalize the content and advertising you see.
Visit our Privacy Policy to learn more. By continuing to use the site, you agree to this use of cookies and data.
  • In Latvia
  • List of Countries
  • For 7 days
  • Water Temperature
  • Satellite Maps
  • Weather Map
  • Weather Widgets
  • user-avatar
    Login

    Hourly Weather Permet

    Today, 18 November, Sunday

    Time Temperature Precipitation Wind Pressure Humidity
    00:00 +3°C° 1.4 mm 3 mps 697 mmHg 85%
    01:00 +3°C° 1.4 mm 3 mps 697 mmHg 86%
    02:00 +3°C° 2.6 mm 3 mps 696 mmHg 87%
    03:00 +2°C° 2.6 mm 3 mps 696 mmHg 88%
    04:00 +2°C° 2.6 mm 3 mps 696 mmHg 89%
    05:00 +1°C° 3.1 mm 4 mps 695 mmHg 89%
    06:00 +3°C° 3.1 mm 4 mps 695 mmHg 89%
    07:00 +3°C° 3.1 mm 4 mps 695 mmHg 89%
    08:00 +3°C° 2.8 mm 4 mps 694 mmHg 89%
    09:00 +3°C° 2.8 mm 4 mps 694 mmHg 89%
    10:00 +3°C° 2.8 mm 4 mps 694 mmHg 89%
    11:00 +3°C° 2.8 mm 3 mps 693 mmHg 90%
    12:00 +3°C° 2.8 mm 3 mps 693 mmHg 90%
    13:00 +3°C° 2.8 mm 3 mps 693 mmHg 91%
    14:00 +3°C° 1.6 mm 3 mps 692 mmHg 90%
    15:00 +3°C° 1.6 mm 3 mps 692 mmHg 90%
    16:00 +3°C° 1.6 mm 3 mps 692 mmHg 89%
    17:00 +4°C° 0.5 mm 2 mps 691 mmHg 89%
    18:00 +4°C° 0.5 mm 2 mps 691 mmHg 89%
    19:00 +4°C° 0.5 mm 2 mps 691 mmHg 89%
    20:00 +4°C° 0.3 mm 2 mps 691 mmHg 89%
    21:00 +5°C° 0.3 mm 1 mps 691 mmHg 89%
    22:00 +5°C° 0.3 mm 1 mps 691 mmHg 89%
    23:00 +5°C° 0 mm 1 mps 691 mmHg 88%

    Tomorrow, 19 November, Monday

    Time Temperature Precipitation Wind Pressure Humidity
    00:00 +5°C° 0 mm 1 mps 691 mmHg 87%
    01:00 +4°C° 0 mm 1 mps 691 mmHg 87%
    02:00 +4°C° 0 mm 1 mps 691 mmHg 86%
    03:00 +4°C° 0 mm 1 mps 691 mmHg 86%
    04:00 +4°C° 0 mm 1 mps 691 mmHg 86%
    05:00 +4°C° 0 mm 1 mps 692 mmHg 85%
    06:00 +4°C° 0 mm 1 mps 692 mmHg 85%
    07:00 +5°C° 0 mm 1 mps 693 mmHg 84%
    08:00 +6°C° 0 mm 1 mps 693 mmHg 83%
    09:00 +7°C° 0 mm 1 mps 694 mmHg 81%
    10:00 +9°C° 0 mm 1 mps 694 mmHg 79%
    11:00 +9°C° 0 mm 1 mps 694 mmHg 78%
    12:00 +9°C° 0 mm 1 mps 694 mmHg 76%
    13:00 +9°C° 0 mm 2 mps 694 mmHg 75%
    14:00 +8°C° 0 mm 2 mps 694 mmHg 78%
    15:00 +8°C° 0 mm 2 mps 694 mmHg 81%
    16:00 +7°C° 0 mm 2 mps 694 mmHg 84%
    17:00 +7°C° 0 mm 2 mps 694 mmHg 85%
    18:00 +7°C° 0 mm 2 mps 694 mmHg 86%
    19:00 +5°C° 0 mm 3 mps 694 mmHg 87%
    20:00 +5°C° 0.2 mm 3 mps 694 mmHg 86%
    21:00 +5°C° 0.2 mm 3 mps 695 mmHg 86%
    22:00 +5°C° 0.2 mm 3 mps 695 mmHg 85%
    23:00 +7°C° 0.3 mm 3 mps 695 mmHg 85%

    Day after tomorrow, 20 November, Tuesday

    Time Temperature Precipitation Wind Pressure Humidity
    00:00 +6°C° 0.3 mm 4 mps 694 mmHg 85%
    01:00 +6°C° 0.3 mm 4 mps 694 mmHg 84%
    02:00 +6°C° 0.1 mm 4 mps 694 mmHg 83%
    03:00 +6°C° 0.1 mm 4 mps 694 mmHg 82%
    04:00 +6°C° 0.1 mm 4 mps 694 mmHg 81%
    05:00 +6°C° 0.3 mm 4 mps 694 mmHg 82%
    06:00 +6°C° 0.3 mm 4 mps 694 mmHg 83%
    07:00 +6°C° 0.3 mm 4 mps 694 mmHg 84%
    08:00 +7°C° 0.6 mm 4 mps 694 mmHg 86%
    09:00 +7°C° 0.6 mm 4 mps 695 mmHg 88%
    10:00 +8°C° 0.6 mm 5 mps 695 mmHg 90%
    11:00 +8°C° 0.9 mm 4 mps 695 mmHg 90%
    12:00 +8°C° 0.9 mm 4 mps 694 mmHg 90%
    13:00 +10°C° 0.9 mm 4 mps 694 mmHg 91%
    14:00 +8°C° 0.9 mm 4 mps 694 mmHg 91%
    15:00 +8°C° 0.9 mm 4 mps 694 mmHg 92%
    16:00 +8°C° 0.9 mm 4 mps 693 mmHg 92%
    17:00 +8°C° 2 mm 4 mps 693 mmHg 93%
    18:00 +8°C° 2 mm 4 mps 693 mmHg 93%
    19:00 +9°C° 2 mm 3 mps 693 mmHg 94%
    20:00 +8°C° 1 mm 3 mps 693 mmHg 93%
    21:00 +8°C° 1 mm 3 mps 692 mmHg 92%
    22:00 +7°C° 1 mm 4 mps 692 mmHg 91%
    23:00 +7°C° 2 mm 4 mps 692 mmHg 92%

    21 November, Wednesday

    Time Temperature Precipitation Wind Pressure Humidity
    00:00 +7°C° 2 mm 4 mps 691 mmHg 93%
    01:00 +8°C° 2 mm 3 mps 691 mmHg 94%
    02:00 +8°C° 2 mm 3 mps 691 mmHg 94%
    03:00 +8°C° 2 mm 3 mps 691 mmHg 95%
    04:00 +8°C° 2 mm 3 mps 691 mmHg 95%
    05:00 +8°C° 0.5 mm 3 mps 691 mmHg 95%
    06:00 +8°C° 0.5 mm 2 mps 691 mmHg 95%
    07:00 +8°C° 0.5 mm 2 mps 692 mmHg 95%
    08:00 +8°C° 0.1 mm 2 mps 692 mmHg 93%
    09:00 +9°C° 0.1 mm 2 mps 693 mmHg 90%
    10:00 +9°C° 0.1 mm 2 mps 693 mmHg 88%
    11:00 +10°C° 0.1 mm 2 mps 693 mmHg 86%
    12:00 +10°C° 0.1 mm 2 mps 693 mmHg 83%
    13:00 +12°C° 0.1 mm 2 mps 693 mmHg 81%
    14:00 +10°C° 0.1 mm 2 mps 694 mmHg 84%
    15:00 +10°C° 0.1 mm 2 mps 694 mmHg 86%
    16:00 +11°C° 0.1 mm 1 mps 694 mmHg 89%
    17:00 +10°C° 0.1 mm 1 mps 694 mmHg 90%
    18:00 +10°C° 0.1 mm 1 mps 695 mmHg 92%
    19:00 +9°C° 0.1 mm 1 mps 695 mmHg 93%
    20:00 +9°C° 0 mm 1 mps 695 mmHg 93%
    21:00 +9°C° 0 mm 1 mps 696 mmHg 94%
    22:00 +9°C° 0 mm 1 mps 696 mmHg 94%
    23:00 +8°C° 0 mm 1 mps 696 mmHg 94%

    22 November, Thursday

    Time Temperature Precipitation Wind Pressure Humidity
    00:00 +8°C° 0 mm 1 mps 696 mmHg 94%
    01:00 +8°C° 0 mm 1 mps 696 mmHg 94%
    02:00 +8°C° 0 mm 1 mps 696 mmHg 93%
    03:00 +8°C° 0 mm 1 mps 696 mmHg 93%
    04:00 +8°C° 0 mm 1 mps 696 mmHg 93%
    05:00 +8°C° 0 mm 1 mps 696 mmHg 92%
    06:00 +8°C° 0 mm 1 mps 696 mmHg 92%
    07:00 +8°C° 0 mm 1 mps 697 mmHg 91%
    08:00 +9°C° 0 mm 1 mps 697 mmHg 88%
    09:00 +11°C° 0 mm 1 mps 697 mmHg 84%
    10:00 +12°C° 0 mm 1 mps 698 mmHg 80%
    11:00 +12°C° 0 mm 1 mps 698 mmHg 78%
    12:00 +13°C° 0 mm 1 mps 698 mmHg 77%
    13:00 +14°C° 0 mm 1 mps 698 mmHg 75%
    14:00 +13°C° 0 mm 1 mps 698 mmHg 78%
    15:00 +12°C° 0 mm 1 mps 698 mmHg 82%
    16:00 +11°C° 0 mm 1 mps 698 mmHg 85%
    17:00 +11°C° 0 mm 1 mps 698 mmHg 88%
    18:00 +10°C° 0 mm 1 mps 698 mmHg 90%
    19:00 +8°C° 0 mm 0 mps 698 mmHg 92%
    20:00 +9°C° 0 mm 1 mps 699 mmHg 92%
    21:00 +9°C° 0 mm 1 mps 699 mmHg 92%
    22:00 +8°C° 0 mm 1 mps 699 mmHg 93%
    23:00 +8°C° 0 mm 1 mps 699 mmHg 92%

    23 November, Friday

    Time Temperature Precipitation Wind Pressure Humidity
    00:00 +8°C° 0 mm 1 mps 699 mmHg 92%
    01:00 +8°C° 0 mm 1 mps 699 mmHg 92%
    02:00 +8°C° 0 mm 1 mps 699 mmHg 90%
    03:00 +7°C° 0 mm 1 mps 699 mmHg 89%
    04:00 +7°C° 0 mm 1 mps 699 mmHg 87%
    05:00 +7°C° 0 mm 1 mps 699 mmHg 85%
    06:00 +7°C° 0 mm 1 mps 700 mmHg 84%
    07:00 +7°C° 0 mm 1 mps 700 mmHg 82%
    08:00 +9°C° 0 mm 1 mps 700 mmHg 77%
    09:00 +10°C° 0 mm 1 mps 701 mmHg 73%
    10:00 +12°C° 0 mm 1 mps 701 mmHg 68%
    11:00 +13°C° 0 mm 1 mps 701 mmHg 67%
    12:00 +13°C° 0 mm 1 mps 701 mmHg 65%
    13:00 +14°C° 0 mm 1 mps 701 mmHg 63%
    14:00 +13°C° 0 mm 1 mps 701 mmHg 67%
    15:00 +11°C° 0 mm 0 mps 700 mmHg 71%
    16:00 +10°C° 0 mm 0 mps 700 mmHg 74%
    17:00 +9°C° 0 mm 0 mps 700 mmHg 76%
    18:00 +10°C° 0 mm 1 mps 700 mmHg 79%
    19:00 +9°C° 0 mm 1 mps 701 mmHg 81%
    20:00 +9°C° 0 mm 1 mps 701 mmHg 81%
    21:00 +8°C° 0 mm 1 mps 701 mmHg 82%
    22:00 +8°C° 0 mm 1 mps 701 mmHg 82%
    23:00 +8°C° 0 mm 1 mps 700 mmHg 82%
    Show more